Regional Weather Roundup
Issued by NWS Green Bay, WI

Home | Current Version | Previous Version | Graphics & Text | Print | Product List | Glossary Off
Versions: 1 2 3 4 5 6 7 8 9 10 11 12 13 14 15 16 17 18 19 20 21 22 23 24 25 26 27 28 29 30 31 32 33 34 35 36 37 38 39 40 41 42 43 44 45 46 47 48 49 50

000
ASUS43 KGRB 011211
RWRGRB

NORTH-CENTRAL AND NORTHEAST WISCONSIN REGIONAL WEATHER ROUNDUP
NATIONAL WEATHER SERVICE GREEN BAY WI
700 AM CDT MON JUN 01 2015

WIZ005-009-010>012-018-019-011300-
NORTH CENTRAL WISCONSIN

CITY           SKY/WX    TMP DP  RH WIND       PRES   REMARKS
IRONWOOD       SUNNY     39  36  87 CALM      30.30S
MANITOWISH WTR SUNNY     43  33  68 SE3       30.32S
ARBOR VITAE    SUNNY     44  32  63 SE6       30.33R
EAGLE RIVER    SUNNY     44  30  59 E3        30.33S
LAND O LAKES   SUNNY     40  34  77 CALM      30.34S
RHINELANDER    SUNNY     41  31  67 E6        30.34R
PHILLIPS       PTSUNNY   43  38  83 E3        30.31S
ANTIGO         SUNNY     40  35  83 E5        30.33R
TOMAHAWK       SUNNY     41  39  94 CALM      30.33S
MERRILL        SUNNY     42  37  83 CALM      30.33F
$$

WIZ013-073-011300-
NORTHEAST WISCONSIN

CITY           SKY/WX    TMP DP  RH WIND       PRES   REMARKS
IRON MOUNTAIN  SUNNY     39  32  76 CALM      30.34R
MARINETTE      MOSUNNY   39  34  81 N5        30.35R
OCONTO         SUNNY     41  37  87 NE5       30.35R
$$

WIZ017-030-035>037-045-011300-
CENTRAL WISCONSIN

CITY           SKY/WX    TMP DP  RH WIND       PRES   REMARKS
MEDFORD        SUNNY     42  38  85 E6        30.30F
WAUSAU         SUNNY     43  35  73 E7        30.31R
MOSINEE        SUNNY     41  37  87 NE3       30.33R
MARSHFIELD     SUNNY     44  37  76 E12       30.30S
WISC RAPIDS    SUNNY     45  37  73 E7        30.32R
STEVENS POINT  SUNNY     41  36  84 E6        30.33R
WAUPACA        SUNNY     47  42  84 NE5       30.33S
SHAWANO        SUNNY     44  38  79 NE7       30.35R
CLINTONVILLE   SUNNY     43  36  75 NE5       30.34R
$$

WIZ038-039-048-051-011300-
FOX VALLEY

CITY           SKY/WX    TMP DP  RH WIND       PRES   REMARKS
NWS GREEN BAY  SUNNY     47  38  71 E3        30.34R
APPLETON       MOSUNNY   45  36  70 NE6       30.33R
OSHKOSH        SUNNY     49  41  74 E8        30.31R
FOND DU LAC    SUNNY     47  40  76 NE6       30.31R
$$

WIZ022-050-052-011300-
EAST CENTRAL WISCONSIN

CITY           SKY/WX    TMP DP  RH WIND       PRES   REMARKS
STURGEON BAY   SUNNY     45  34  65 E5        30.37R
MANITOWOC      SUNNY     44  41  89 N5        30.34R
SHEBOYGAN      SUNNY     44  40  85 NE7       30.32R
$$

LMZ563-521-522-541>543-011300-
LAKESHORE

STATION/POSITION TIME  TEMP    WIND        PRES    VSBY  WAVE
                       AIR SEA DIR/SP/G                  HT/PER
                 (UTC) (F)     (DEG/KT/KT) (MB)    (MI)  (FT/S)
SHEBOYGAN LKSHOR 1200   44      10/ 11/ 11 1027.5R
KEWAUNEE LKSHORE 1112   43      30/  8/ 12 1026.1R
ALGOMA MARINA    1124           50/  8/ 10   N/A
NORTHPORT PIER   1100   46     100/  4/  4 1027.4R
N MID LAKE BUOY  1150   39 37  340/  2/  2 1028.2R         1
SISTER BAY LKSHO 1118   45        CALM       N/A
STURGEON BAY CG  1145   46      50/  4     1027.0      6   2
CHAMBERS ISLAND  1100   47      30/  4/  5 1027.4R
MENOMINEE LKSHOR 1106   42     330/  7/  8 1027.8R
$$


USA.gov is the U.S. government's official web portal to all federal, state and local government web resources and services.